AirNav   Everest Fuels
 
 1069 users online  

CA57 Blake Sky Park Airport
Vacaville, California, USA

GOING TO VACAVILLE?


FAA INFORMATION EFFECTIVE 20 MAY 2021

Location

FAA Identifier: CA57
Lat/Long: 38-27-29.6690N 122-02-43.8890W
38-27.494483N 122-02.731483W
38.4582414,-122.0455247
(estimated)
Elevation: 310 ft. / 94 m (estimated)
Variation: 16E (1985)
From city: 6 miles NW of VACAVILLE, CA
Time zone: UTC -7 (UTC -8 during Standard Time)
Zip code: 95688

Airport Operations

Airport use: Private use. Permission required prior to landing
Activation date: 08/1972
Control tower: no
ARTCC: OAKLAND CENTER
FSS: RANCHO MURIETA FLIGHT SERVICE STATION
Attendance: DAYLIGHT HOURS
Wind indicator: yes
Segmented circle: yes

Airport Communications

WX ASOS at VCB (6 nm SE): 134.75 (707-448-1594)
WX AWOS-3P at DWA (11 nm NE): 125.775 (530-750-2759)
WX AWOS-3 at EDU (13 nm E): 119.025 (530-754-6839)
WX ASOS at APC (18 nm SW): PHONE 707-252-7916

Nearby radio navigation aids

VOR radial/distance  VOR name  Freq  Var
SGDr026/22.8SCAGGS ISLAND VORTAC112.1017E
SACr255/23.2SACRAMENTO VORTAC115.2017E
CCRr343/24.8CONCORD VOR/DME117.0017E
MCCr230/32.6MC CLELLAN VOR/DME109.2017E
STSr079/36.1SANTA ROSA VOR/DME113.0016E
ILAr163/36.8WILLIAMS VORTAC114.4018E

Airport Services

Airframe service: MINOR
Powerplant service: MINOR

Runway Information

Runway 17/35

Dimensions: 1600 x 75 ft. / 488 x 23 m
Surface: turf
RUNWAY 17  RUNWAY 35
Traffic pattern: rightleft
Obstructions: 30 ft. plines, 400 ft. from runwaynone

Airport Ownership and Management from official FAA records

Ownership: Privately-owned
Owner: WM K BLAKE
8100 PLEASANTS VALLEY RD.
VACAVILLE, CA 95688
Phone 707-448-7280
Manager: WM K BLAKE
8100 PLEASANTS VALLEY RD.
VACAVILLE, CA 95688
Phone 707-448-7280

Airport Operational Statistics

Aircraft based on the field: 1
Helicopters: 1
    

Additional Remarks

FOR CD CTC OAKLAND ARTCC AT 510-745-3380.

Instrument Procedures

There are no published instrument procedures at CA57.

Some nearby airports with instrument procedures:

KVCB - Nut Tree Airport (6 nm SE)
KDWA - Yolo County Airport (11 nm NE)
KEDU - University Airport (13 nm E)
KSUU - Travis Air Force Base (13 nm SE)
O41 - Watts-Woodland Airport (15 nm NE)
KAPC - Napa County Airport (18 nm SW)
 
Loc | Ops | Rwys | IFR | FBO | Links
Com | Nav | Svcs | Stats | Notes

Sonoma Jet Center
 
Area around CA57 (Blake Sky Park Airport)
 
Road maps at: MapQuest Bing Google
 
Aerial photo
No photo
 
Sectional chart

 
Airport distance calculator
Flying to Blake Sky Park Airport? Find the distance to fly.

From to CA57

Sunrise and sunset
Times for 13-Jun-2021
 Local
(UTC-7)
 Zulu
(UTC)
Morning civil twilight05:1312:13
Sunrise05:4512:45
Sunset20:3203:32
Evening civil twilight21:0404:04

Current date and time
Zulu (UTC)  13-Jun-2021 19:49:36
Local (UTC-7)  13-Jun-2021 12:49:36
 
METAR
KVCB 
6nm SE 
131853Z AUTO 22011G18KT 10SM CLR 29/13 A2990 RMK AO2 SLP122 T02940128 $
KDWA 
11nm NE 
131910Z AUTO 18007KT 10SM CLR 29/12 A2989 RMK AO2
KEDU 
13nm E 
131915Z AUTO 21007KT 10SM CLR 29/12 A2989 RMK AO1
KSUU 
13nm SE 
131858Z AUTO 24018G23KT 10SM CLR 28/13 A2990 RMK AO2 PK WND 25027/51 SLP131 T02750127
KAPC 
19nm SW 
131854Z 25013G20KT 10SM CLR 25/15 A2993 RMK AO2 SLP128 T02500150
TAF
KSUU 
13nm SE 
131100Z 1311/1417 23015G25KT 9999 SKC QNH2985INS BECMG 1317/1318 27015G25KT 9999 SKC QNH2989INS BECMG 1403/1404 23015G25KT 9999 SKC QNH2992INS BECMG 1411/1412 23012KT 9999 SKC QNH3003INS TX35/1323Z TN13/1314Z
KAPC 
19nm SW 
131737Z 1318/1418 25015G20KT P6SM SKC FM140400 25008KT P6SM FEW200 FM140600 25006KT P6SM OVC015 FM141700 24011KT P6SM SCT015
NOTAMs
Click for the latest NOTAMs
NOTAMs are issued by the DoD/FAA and will open in a separate window not controlled by AirNav.

 

 
 

Would you like to see your business listed on this page?

 If your business provides an interesting product or service to pilots, flight crews, aircraft, or users of the Blake Sky Park Airport, you should consider listing it here.  To start the listing process, click on the button below
 
Add a business
 

Other Pages about Blake Sky Park Airport

Update a link
 
Copyright © AirNav, LLC. All rights reserved. Privacy Policy  Contact